Cuney, TX

8:50 AM CST on February 09, 2016 (GMT -0600)
Cherokee County

Weather History for KJSO - August, 2014

Change the Weather History Date:

Sunday, August 10, 2014

  Actual Average (KTYR) Record (KTYR)
Temperature  
Mean Temperature 85 °F 84 °F  
Max Temperature 94 °F 94 °F 106 °F (2011)
Min Temperature 76 °F 74 °F 59 °F (1989)
Degree Days  
Heating Degree Days 0 0  
Month to date heating degree days 0  
Since 1 June heating degree days 0  
Since 1 July heating degree days 0  
Cooling Degree Days 20 19  
Month to date cooling degree days 190  
Year to date cooling degree days 1548  
Since 1 June cooling degree days 1179  
Growing Degree Days 35 (Base 50)    
Moisture  
Dew Point 72 °F    
Average Humidity 68    
Maximum Humidity 93    
Minimum Humidity 41    
Precipitation  
Precipitation 0.00 in 0.08 in 0.41 in (2002)
Month to date precipitation 0.77  
Year to date precipitation 27.17  
Snow  
Snow 0.00 in - - ()
Month to date snowfall  
Since 1 June snowfall  
Since 1 July snowfall  
Snow Depth -    
Sea Level Pressure  
Sea Level Pressure 30.03 in    
Wind  
Wind Speed 5 mph (SSW)    
Max Wind Speed 9 mph    
Max Gust Speed -    
Visibility 10 miles    
Events      
T = Trace of Precipitation, MM = Missing Value Source: NWS Daily Summary

Daily Weather History Graph

Daily Weather History Graph

Search for Another Location

Airport or City:

Trip Planner

Search our weather history database for the weather conditions in past years. The results will help you decide how hot, cold, wet, or windy it might be!

Date:

Astronomy

Aug. 10, 2014 Rise Set
Actual Time 6:42 AM CDT 8:09 PM CDT
Civil Twilight 6:16 AM CDT 8:35 PM CDT
Nautical Twilight 5:45 AM CDT 9:06 PM CDT
Astronomical Twilight 5:12 AM CDT 9:38 PM CDT
Moon 8:02 PM CDT (8/10) 6:32 AM CDT (8/10)
Length of Visible Light 14h 19m
Length of Day
13h 27m
Full, 100% of the Moon is Illuminated
Aug 10
Full
Aug 10
Full
Aug 17
Last Quarter
Aug 25
New
Sep 2
First Quarter

Hourly Weather History & Observations

Time (CDT) Temp. Heat Index Dew Point Humidity Pressure Visibility Wind Dir Wind Speed Gust Speed Precip Events Conditions
12:15 AM 81.3 °F 86.5 °F 73.4 °F 77% 30.02 in 10.0 mi South 8.1 mph - N/A   Clear
12:35 AM 81.0 °F 86.0 °F 73.4 °F 78% 30.01 in 10.0 mi South 5.8 mph - N/A   Clear
12:55 AM 81.1 °F 86.2 °F 73.4 °F 77% 30.02 in 10.0 mi South 3.5 mph - N/A   Clear
1:15 AM 79.7 °F - 73.6 °F 81% 30.03 in 10.0 mi SSW 3.5 mph - N/A   Clear
1:35 AM 79.7 °F - 73.8 °F 82% 30.02 in 10.0 mi SSW 4.6 mph - N/A   Clear
1:55 AM 79.7 °F - 73.6 °F 81% 30.01 in 10.0 mi South 5.8 mph - N/A   Clear
2:15 AM 79.3 °F - 73.6 °F 82% 30.01 in 10.0 mi South 5.8 mph - N/A   Clear
2:35 AM 78.8 °F - 73.6 °F 84% 30.01 in 10.0 mi South 6.9 mph - N/A   Clear
2:55 AM 78.8 °F - 73.8 °F 84% 30.00 in 10.0 mi South 6.9 mph - N/A   Clear
3:15 AM 78.3 °F - 73.8 °F 86% 30.00 in 10.0 mi South 8.1 mph - N/A   Clear
3:35 AM 77.9 °F - 73.6 °F 86% 30.00 in 10.0 mi SSW 6.9 mph - N/A   Clear
3:55 AM 77.9 °F - 73.4 °F 86% 30.00 in 10.0 mi South 6.9 mph - N/A   Clear
4:15 AM 77.9 °F - 73.4 °F 86% 30.01 in 10.0 mi South 5.8 mph - N/A   Clear
4:35 AM 77.5 °F - 73.4 °F 87% 30.01 in 10.0 mi South 4.6 mph - N/A   Clear
4:55 AM 77.0 °F - 73.4 °F 89% 30.02 in 10.0 mi SSW 3.5 mph - N/A   Clear
5:15 AM 76.6 °F - 73.4 °F 90% 30.02 in 10.0 mi SSW 4.6 mph - N/A   Clear
5:35 AM 76.3 °F - 73.4 °F 91% 30.03 in 10.0 mi SW 4.6 mph - N/A   Clear
5:55 AM 76.5 °F - 73.6 °F 91% 30.03 in 10.0 mi SW 4.6 mph - N/A   Clear
6:15 AM 76.3 °F - 73.6 °F 91% 30.03 in 10.0 mi WSW 3.5 mph - N/A   Clear
6:35 AM 76.3 °F - 73.8 °F 92% 30.04 in 10.0 mi Calm Calm - N/A   Clear
6:55 AM 76.1 °F - 73.8 °F 92% 30.05 in 10.0 mi South 3.5 mph - N/A   Clear
7:15 AM 76.3 °F - 74.1 °F 93% 30.06 in 10.0 mi South 3.5 mph - N/A   Clear
7:35 AM 77.0 °F - 74.5 °F 92% 30.06 in 10.0 mi South 4.6 mph - N/A   Clear
7:55 AM 77.7 °F - 74.8 °F 91% 30.06 in 10.0 mi South 4.6 mph - N/A   Clear
8:15 AM 78.3 °F - 75.2 °F 90% 30.07 in 10.0 mi South 6.9 mph - N/A   Clear
8:35 AM 78.8 °F - 75.2 °F 89% 30.08 in 10.0 mi SSW 6.9 mph - N/A   Clear
8:55 AM 80.2 °F 85.7 °F 75.6 °F 86% 30.08 in 10.0 mi South 5.8 mph - N/A   Clear
9:15 AM 82.0 °F 89.4 °F 75.9 °F 82% 30.08 in 10.0 mi SW 6.9 mph - N/A   Clear
9:35 AM 83.3 °F 89.9 °F 73.9 °F 73% 30.08 in 10.0 mi SW 9.2 mph - N/A   Clear
9:55 AM 84.2 °F 91.6 °F 74.1 °F 72% 30.08 in 10.0 mi SSW 6.9 mph - N/A   Clear
10:15 AM 84.9 °F 92.5 °F 74.1 °F 70% 30.08 in 10.0 mi SW 6.9 mph - N/A   Clear
10:35 AM 86.2 °F 93.8 °F 73.6 °F 66% 30.08 in 10.0 mi WSW 8.1 mph - N/A   Clear
10:55 AM 87.3 °F 94.0 °F 72.1 °F 61% 30.09 in 10.0 mi SW 6.9 mph - N/A   Clear
11:15 AM 88.5 °F 94.9 °F 71.6 °F 57% 30.09 in 10.0 mi WSW 8.1 mph - N/A   Clear
11:35 AM 88.9 °F 93.8 °F 69.8 °F 53% 30.09 in 10.0 mi WSW 5.8 mph - N/A   Clear
11:55 AM 89.8 °F 94.2 °F 69.1 °F 50% 30.09 in 10.0 mi SSW 5.8 mph - N/A   Clear
12:15 PM 90.7 °F 95.4 °F 69.1 °F 49% 30.09 in 10.0 mi SW 6.9 mph - N/A   Clear
12:35 PM 90.1 °F 94.4 °F 68.7 °F 49% 30.09 in 10.0 mi SSW 5.8 mph - N/A   Clear
12:55 PM 91.8 °F 96.5 °F 68.7 °F 47% 30.09 in 10.0 mi SSW 5.8 mph - N/A   Clear
1:15 PM 91.8 °F 96.5 °F 68.7 °F 47% 30.08 in 10.0 mi West 4.6 mph - N/A   Clear
1:35 PM 92.7 °F 97.2 °F 68.7 °F 45% 30.08 in 10.0 mi West 5.8 mph - N/A   Clear
1:55 PM 91.9 °F 96.9 °F 69.1 °F 47% 30.07 in 10.0 mi Calm Calm - N/A   Scattered Clouds
2:15 PM 92.1 °F 97.7 °F 69.6 °F 48% 30.07 in 10.0 mi SSW 4.6 mph - N/A   Scattered Clouds
2:35 PM 93.9 °F 99.7 °F 69.6 °F 45% 30.06 in 10.0 mi West 5.8 mph - N/A   Scattered Clouds
2:55 PM 93.2 °F 99.4 °F 70.2 °F 47% 30.05 in 10.0 mi WSW 4.6 mph - N/A   Scattered Clouds
3:15 PM 91.6 °F 96.7 °F 69.3 °F 48% 30.05 in 10.0 mi Calm Calm - N/A   Scattered Clouds
3:35 PM 92.3 °F 97.6 °F 69.3 °F 47% 30.03 in 10.0 mi West 3.5 mph - N/A   Clear
3:55 PM 93.2 °F 99.4 °F 70.0 °F 47% 30.02 in 10.0 mi Calm Calm - N/A   Clear
4:15 PM 94.1 °F 99.5 °F 69.4 °F 44% 30.01 in 10.0 mi West 4.6 mph - N/A   Clear
4:35 PM 94.6 °F 99.4 °F 68.5 °F 42% 30.01 in 10.0 mi Calm Calm - N/A   Clear
4:55 PM 94.8 °F 99.2 °F 68.0 °F 41% 30.00 in 10.0 mi SW 4.6 mph - N/A   Clear
5:15 PM 94.1 °F 98.9 °F 68.2 °F 43% 30.00 in 10.0 mi Calm Calm - N/A   Clear
5:35 PM 93.9 °F 98.6 °F 68.2 °F 43% 29.99 in 10.0 mi SSW 4.6 mph - N/A   Clear
5:55 PM 94.3 °F 98.7 °F 68.2 °F 42% 29.99 in 10.0 mi Calm Calm - N/A   Clear
6:15 PM 93.6 °F 98.4 °F 68.7 °F 44% 29.99 in 10.0 mi South 4.6 mph - N/A   Clear
6:35 PM 93.6 °F 99.5 °F 70.0 °F 46% 29.98 in 10.0 mi South 3.5 mph - N/A   Clear
6:55 PM 92.3 °F 98.1 °F 70.2 °F 48% 29.98 in 10.0 mi SE 3.5 mph - N/A   Clear
7:15 PM 91.9 °F 98.4 °F 70.9 °F 50% 29.97 in 10.0 mi Calm Calm - N/A   Clear
7:35 PM 91.2 °F 97.5 °F 70.7 °F 51% 29.98 in 10.0 mi Calm Calm - N/A   Clear
7:55 PM 89.6 °F 97.2 °F 72.7 °F 57% 29.99 in 10.0 mi Calm Calm - N/A   Clear
8:15 PM 87.1 °F 94.9 °F 73.6 °F 64% 30.00 in 10.0 mi Calm Calm - N/A   Clear
8:35 PM 86.4 °F 94.2 °F 73.6 °F 66% 30.00 in 10.0 mi Calm Calm - N/A   Clear
8:55 PM 86.0 °F 93.8 °F 73.9 °F 67% 30.00 in 10.0 mi SE 3.5 mph - N/A   Clear
9:15 PM 85.5 °F 92.6 °F 73.6 °F 67% 30.01 in 10.0 mi SE 3.5 mph - N/A   Clear
9:35 PM 85.1 °F 92.2 °F 73.4 °F 68% 30.01 in 10.0 mi SE 3.5 mph - N/A   Clear
9:55 PM 84.0 °F 90.5 °F 73.4 °F 70% 30.02 in 10.0 mi Calm Calm - N/A   Clear
10:15 PM 84.0 °F 90.8 °F 73.8 °F 71% 30.03 in 10.0 mi Calm Calm - N/A   Clear
10:35 PM 83.5 °F 90.3 °F 73.9 °F 73% 30.03 in 10.0 mi Calm Calm - N/A   Clear
10:55 PM 82.8 °F 89.2 °F 74.1 °F 75% 30.03 in 10.0 mi Calm Calm - N/A   Clear
11:15 PM 83.3 °F 90.2 °F 74.3 °F 74% 30.04 in 10.0 mi South 5.8 mph - N/A   Clear
11:35 PM 82.4 °F 89.0 °F 74.5 °F 77% 30.05 in 10.0 mi South 8.1 mph - N/A   Clear
11:55 PM 81.9 °F 88.0 °F 74.5 °F 78% 30.05 in 10.0 mi South 6.9 mph - N/A   Clear